This is the latest recevied weather packets stored in our database for station/object HA3KE-10. If no packets are shown the sender has not sent any weather packets the latest 10 day(s).
| Time | Temp. | Humidity | Pressure | Rain* | Wind** | Luminosity | Snow |
|---|---|---|---|---|---|---|---|
| 1777908888 | 29.44° C | 17% | 1016 hPa | - | - | - | - |
| 1777907088 | 29.44° C | 18% | 1016.2 hPa | - | - | - | - |
| 1777905287 | 29.44° C | 19% | 1016.3 hPa | - | - | - | - |
| 1777903487 | 29.44° C | 17% | 1016.6 hPa | - | - | - | - |
| 1777902587 | 29.44° C | 18% | 1016.7 hPa | - | - | - | - |
| 1777901687 | 29.44° C | 19% | 1016.8 hPa | - | - | - | - |
| 1777900787 | 28.89° C | 19% | 1017 hPa | - | - | - | - |
| 1777898086 | 27.78° C | 21% | 1017.7 hPa | - | - | - | - |
| 1777897186 | 27.78° C | 21% | 1017.7 hPa | - | - | - | - |
| 1777896286 | 27.78° C | 21% | 1017.9 hPa | - | - | - | - |
| 1777895386 | 26.67° C | 21% | 1017.9 hPa | - | - | - | - |
| 1777894485 | 26.67° C | 22% | 1018.2 hPa | - | - | - | - |
| 1777893585 | 26.11° C | 22% | 1018.4 hPa | - | - | - | - |
| 1777892685 | 25.56° C | 24% | 1018.4 hPa | - | - | - | - |
| 1777891785 | 25° C | 22% | 1018.7 hPa | - | - | - | - |
| 1777890888 | 25° C | 24% | 1019 hPa | - | - | - | - |
| 1777889987 | 24.44° C | 26% | 1019 hPa | - | - | - | - |
| 1777889087 | 23.89° C | 27% | 1019.3 hPa | - | - | - | - |
| 1777887287 | 22.22° C | 27% | 1019.5 hPa | - | - | - | - |
| 1777886387 | 21.11° C | 27% | 1019.6 hPa | - | - | - | - |
| 1777885487 | 21.11° C | 30% | 1019.7 hPa | - | - | - | - |
| 1777884587 | 20° C | 31% | 1019.8 hPa | - | - | - | - |
| 1777883686 | 19.44° C | 31% | 1019.7 hPa | - | - | - | - |
| 1777881886 | 18.33° C | 33% | 1019.8 hPa | - | - | - | - |
| 1777880086 | 16.67° C | 36% | 1019.9 hPa | - | - | - | - |
* Rain since midnight (hover to see other rain measurements)
** Current wind speed in m/s (hover to see current wind gust speed)